Time_in_sec,Mx,My,Mz
1323442964.15710068,-0.38615036,-0.17546132,-0.87562019
1323442964.20566678,-0.38855547,-0.17409575,-0.87653017
1323442964.25350785,-0.38515985,-0.17413317,-0.87634313
1323442964.30547810,-0.38538766,-0.17633536,-0.87378019
1323442964.35251689,-0.38684481,-0.17484199,-0.87630278
1323442964.40467072,-0.38568419,-0.17485213,-0.87649482
1323442964.45357323,-0.38548806,-0.17474520,-0.87533295
1323442964.50565863,-0.38638306,-0.17630982,-0.87524301
1323442964.55355978,-0.38643634,-0.17412440,-0.87590146
1323442964.60557532,-0.38743514,-0.17533013,-0.87530786
1323442964.65257144,-0.38694954,-0.17436209,-0.87580001
1323442964.70558500,-0.38743412,-0.17448439,-0.87518585
1323442964.75259972,-0.38522878,-0.17547281,-0.87544143
1323442964.80552149,-0.38734382,-0.17571008,-0.87376428
1323442964.85272765,-0.38727432,-0.17374286,-0.87684619
1323442964.90660810,-0.38689989,-0.17606343,-0.87514520
1323442964.95355940,-0.38491672,-0.17439774,-0.87440813
1323442965.00463223,-0.38777900,-0.17581835,-0.87455535
1323442965.05256391,-0.38630846,-0.17376277,-0.87589705
1323442965.11254811,-0.38677293,-0.17558078,-0.87514168
1323442965.15264177,-0.38581824,-0.17187573,-0.87166005
1323442965.20153117,-0.38700405,-0.17495595,-0.87682265
1323442965.25339437,-0.38615754,-0.17352639,-0.87550646
1323442965.30565190,-0.38614458,-0.17693606,-0.87343359
1323442965.35357046,-0.38611156,-0.17474364,-0.87485528
1323442965.40458679,-0.38616878,-0.17497443,-0.87588066
1323442965.45352387,-0.38690865,-0.17560183,-0.87297320
1323442965.50142670,-0.38627779,-0.17560479,-0.87332243
1323442965.55614948,-0.38527671,-0.17498028,-0.87621552
1323442965.60149240,-0.38664415,-0.17534018,-0.87513632
1323442965.65257120,-0.38687482,-0.17449719,-0.87451506
1323442965.70454264,-0.38638943,-0.17546268,-0.87524939
1323442965.76462579,-0.38641509,-0.17400759,-0.87551719
1323442965.80553198,-0.38612819,-0.17029254,-0.87232834
1323442965.85519671,-0.38659567,-0.17520513,-0.87654245
1323442965.90123343,-0.38608667,-0.17511092,-0.87446737
1323442965.95601106,-0.38572055,-0.17366017,-0.87471354
1323442966.00552201,-0.38551262,-0.17512652,-0.87353975
1323442966.05272913,-0.38581526,-0.17451151,-0.87420076
1323442966.10455942,-0.38612598,-0.17548943,-0.87293094
1323442966.15981293,-0.38402706,-0.17478913,-0.87256455
1323442966.20480895,-0.38668346,-0.17571868,-0.87359995
1323442966.26553345,-0.38656661,-0.17487156,-0.87372756
1323442966.30555511,-0.38653260,-0.17127606,-0.87042373
1323442966.35268950,-0.38501427,-0.17585279,-0.87401909
1323442966.40549302,-0.38605863,-0.17562312,-0.87177444
1323442966.45267415,-0.38717723,-0.17559753,-0.87311602
1323442966.50455785,-0.38627759,-0.17732017,-0.87126237
1323442966.55365467,-0.38613144,-0.17476331,-0.87293649
1323442966.60567188,-0.38563481,-0.17428075,-0.87329656
1323442966.65258789,-0.38549137,-0.17500973,-0.87315547
1323442966.71356201,-0.38443172,-0.17405729,-0.87272006
1323442966.76509190,-0.38609207,-0.17286068,-0.86974823
1323442966.80549741,-0.38506955,-0.17018583,-0.87201488
1323442966.85294747,-0.38536340,-0.17368133,-0.87302995
1323442966.90499043,-0.38594350,-0.17356719,-0.87178278
1323442966.95419955,-0.38526344,-0.17548965,-0.87377942
1323442967.00563788,-0.38640058,-0.17538661,-0.87089902
1323442967.05352378,-0.38499978,-0.17358288,-0.87121886
1323442967.11264014,-0.38565561,-0.17417939,-0.87137866
1323442967.15267253,-0.38656816,-0.17117189,-0.86876261
1323442967.20553374,-0.38722655,-0.17464480,-0.87158972
1323442967.26473379,-0.38604367,-0.17369239,-0.87127548
1323442967.30473924,-0.38597432,-0.17213459,-0.86987495
1323442967.36563110,-0.38604185,-0.17393444,-0.87127364
1323442967.40170479,-0.38575456,-0.17152533,-0.87050718
1323442967.45358276,-0.38666403,-0.17535985,-0.87321746
1323442967.50473690,-0.38620037,-0.17610295,-0.87203479
1323442967.55361295,-0.38557839,-0.17296217,-0.87215102
1323442967.60557723,-0.38596019,-0.17428909,-0.87216252
1323442967.65267682,-0.38459596,-0.17322695,-0.87094319
1323442967.70167470,-0.38516748,-0.17550795,-0.87211019
1323442967.75360775,-0.38632530,-0.17489411,-0.87179434
1323442967.80465770,-0.38806352,-0.17706642,-0.87059450
1323442967.85354114,-0.38587445,-0.17490968,-0.87074554
1323442967.91356254,-0.38774532,-0.17512314,-0.87161481
1323442967.95267034,-0.38732961,-0.17116746,-0.86842060
1323442968.00156832,-0.38715434,-0.17613220,-0.86824745
1323442968.05254865,-0.38673639,-0.17428187,-0.87207729
1323442968.10366654,-0.38555089,-0.17465928,-0.87188137
1323442968.15361977,-0.38571396,-0.17622270,-0.87264711
1323442968.20160317,-0.38651553,-0.17550899,-0.87064850
1323442968.25256896,-0.38622683,-0.17356008,-0.87218243
1323442968.31258106,-0.38552853,-0.17637888,-0.86943614
1323442968.35255671,-0.38561577,-0.17261596,-0.87049174
1323442968.40152097,-0.38738486,-0.17487979,-0.87210864
1323442968.46452475,-0.38811904,-0.17485711,-0.87355703
1323442968.50591540,-0.38487634,-0.17164938,-0.87109792
1323442968.55356693,-0.38592237,-0.17441715,-0.87151957
1323442968.60150647,-0.38726255,-0.17475879,-0.87223077
1323442968.65356517,-0.38620469,-0.17356431,-0.87179720
1323442968.70154142,-0.38755658,-0.17501481,-0.87058133
1323442968.75268674,-0.38576964,-0.17442282,-0.87112719
1323442968.80552626,-0.38567662,-0.17601156,-0.86970288
1323442968.85251880,-0.38580835,-0.17417373,-0.87177104
1323442968.90462661,-0.38708219,-0.17549480,-0.87144768
1323442968.95522523,-0.38553068,-0.17538823,-0.87161911
1323442969.00466084,-0.38730833,-0.17525691,-0.87082189
1323442969.05357289,-0.38609999,-0.17404421,-0.87229997
1323442969.10451651,-0.38431132,-0.17466101,-0.87296510
1323442969.15262675,-0.38695899,-0.17549483,-0.87156892
1323442969.20551062,-0.38673469,-0.17549068,-0.87219650
1323442969.25325298,-0.38608056,-0.17368536,-0.87191749
1323442969.30454135,-0.38618708,-0.17661232,-0.86959869
1323442969.35355520,-0.38577801,-0.17526715,-0.87137759
1323442969.40465689,-0.38737747,-0.17488119,-0.87198025
1323442969.45655203,-0.38620946,-0.17489274,-0.87204391
1323442969.50450110,-0.38741687,-0.17622647,-0.87056494
1323442969.55367064,-0.38657287,-0.17305765,-0.87361288
1323442969.60552239,-0.38490063,-0.17430341,-0.87184817
1323442969.65353537,-0.38806149,-0.17537493,-0.87035054
1323442969.70465946,-0.38637391,-0.17599593,-0.87050927
1323442969.75355864,-0.38659498,-0.17670234,-0.87218016
1323442969.80565047,-0.38641375,-0.17755936,-0.87139618
1323442969.85255933,-0.38590884,-0.17355034,-0.87344486
1323442969.91256738,-0.38537702,-0.17551491,-0.87122577
1323442969.95268083,-0.38480404,-0.17217001,-0.86763459
1323442970.00549173,-0.38729185,-0.17646854,-0.87068433
1323442970.05259228,-0.38542473,-0.17308885,-0.87175769
1323442970.10457969,-0.38453278,-0.17406148,-0.87221360
1323442970.15353131,-0.38703096,-0.17572281,-0.87285107
1323442970.20570755,-0.38537511,-0.17479019,-0.87110287
1323442970.25352216,-0.38559940,-0.17479435,-0.87047523
1323442970.30558658,-0.38616687,-0.17734127,-0.86933637
1323442970.35473680,-0.38632053,-0.17356569,-0.87154758
1323442970.40558743,-0.38653028,-0.17550619,-0.87090534
1323442970.46550655,-0.38450235,-0.17418812,-0.87169909
1323442970.50552464,-0.38562170,-0.17155065,-0.86819595
1323442970.55594063,-0.38695535,-0.17597891,-0.87156522
1323442970.60453820,-0.38496107,-0.17383195,-0.87057501
1323442970.65253377,-0.38533083,-0.17479864,-0.87033248
1323442970.71259117,-0.38509813,-0.17395014,-0.87070966
1323442970.75256777,-0.38597158,-0.17249766,-0.86987221
1323442970.80609894,-0.38623318,-0.17636184,-0.87037092
1323442970.85201263,-0.38709685,-0.17452522,-0.87158340
1323442970.90551543,-0.38593996,-0.17501804,-0.87190020
1323442970.95769477,-0.38709050,-0.17537238,-0.87157702
1323442971.00450706,-0.38532537,-0.17552476,-0.87032694
1323442971.05257773,-0.38580653,-0.17441578,-0.87176919
1323442971.11266518,-0.38671619,-0.17501082,-0.87181497
1323442971.15259957,-0.38611636,-0.17186582,-0.87231642
1323442971.20151925,-0.38629678,-0.17574547,-0.87140268
1323442971.25275064,-0.38726005,-0.17340648,-0.87428808
1323442971.30290985,-0.38527402,-0.17478600,-0.87160927
1323442971.35355663,-0.38584059,-0.17380504,-0.87228739
1323442971.40464854,-0.38590714,-0.17475915,-0.87356406
1323442971.45259285,-0.38619584,-0.17305915,-0.87384808
1323442971.51281404,-0.38727537,-0.17768016,-0.87054676
1323442971.55276823,-0.38785675,-0.17249013,-0.86869609
1323442971.60129690,-0.38550341,-0.17536998,-0.87340951
1323442971.65251994,-0.38621026,-0.17380494,-0.87192374
1323442971.70557261,-0.38750941,-0.17497689,-0.87429059
1323442971.75354266,-0.38463795,-0.17379974,-0.87401307
1323442971.80556321,-0.38689867,-0.17693305,-0.87296313
1323442971.85369539,-0.38626376,-0.17355305,-0.87282443
1323442971.91259122,-0.38843930,-0.17484298,-0.87459868
1323442971.95329046,-0.38653314,-0.17246099,-0.87284702
1323442972.01353264,-0.38591519,-0.17635208,-0.87163335
1323442972.05251670,-0.38754991,-0.17296167,-0.87021166
1323442972.10453653,-0.38600639,-0.17500538,-0.87305582
1323442972.15363622,-0.38671902,-0.17561451,-0.87193882
1323442972.20454717,-0.38520530,-0.17537989,-0.87275314
1323442972.25256562,-0.38732412,-0.17245094,-0.87301862
1323442972.30556130,-0.38578176,-0.17574982,-0.87150234
1323442972.35365510,-0.38768932,-0.17402272,-0.87277150
1323442972.40504265,-0.38716966,-0.17366540,-0.87274545
1323442972.45308542,-0.38580313,-0.17318448,-0.87382561
1323442972.50591278,-0.38627848,-0.17719914,-0.87126333
1323442972.55291581,-0.38603240,-0.17280170,-0.87550479
1323442972.60557628,-0.38576460,-0.17536710,-0.87342393
1323442972.65254641,-0.38463429,-0.17428382,-0.87400943
1323442972.71268630,-0.38623726,-0.17609592,-0.87267679
1323442972.75302744,-0.38745710,-0.17283504,-0.87084740
1323442972.80551362,-0.38570666,-0.17719087,-0.87263978
1323442972.85369730,-0.38565889,-0.17500125,-0.87380469
1323442972.90464735,-0.38496283,-0.17414726,-0.87518036
1323442972.95502687,-0.38539860,-0.17488311,-0.87379122
1323442973.00457358,-0.38766375,-0.17644456,-0.87262475
1323442973.05353594,-0.38578007,-0.17330973,-0.87343949
1323442973.10536432,-0.38693660,-0.17412287,-0.87554502
1323442973.15269947,-0.38656923,-0.17354174,-0.87360919
1323442973.20555186,-0.38694727,-0.17438598,-0.87349600
1323442973.25359178,-0.38495091,-0.17475377,-0.87504739
1323442973.30555892,-0.38666585,-0.17511779,-0.87321931
1323442973.35351419,-0.38613617,-0.17609173,-0.87318319
1323442973.40552020,-0.38564354,-0.17437649,-0.87572807
1323442973.45754623,-0.38512841,-0.17341407,-0.87570661
1323442973.51256418,-0.38608050,-0.17789161,-0.87470311
1323442973.55265498,-0.38713983,-0.17077073,-0.87186861
1323442973.60550475,-0.38532966,-0.17354347,-0.87469292
1323442973.65365076,-0.38530853,-0.17439343,-0.87442970
1323442973.70165682,-0.38518339,-0.17366874,-0.87442797
1323442973.75350833,-0.38620615,-0.17462821,-0.87422138
1323442973.80162549,-0.38657045,-0.17632101,-0.87397337
1323442973.85261488,-0.38569942,-0.17451014,-0.87445033
1323442973.90149856,-0.38509333,-0.17317906,-0.87506646
1323442973.95260763,-0.38400173,-0.17549561,-0.87447792
1323442974.01354289,-0.38538575,-0.17561065,-0.87365729
1323442974.05255961,-0.38685113,-0.17247073,-0.87158459
1323442974.10452533,-0.38611054,-0.17389789,-0.87473333
1323442974.15353823,-0.38503256,-0.17439912,-0.87415850
1323442974.20460176,-0.38593528,-0.17521372,-0.87637806
1323442974.25752521,-0.38447270,-0.17378433,-0.87566793
1323442974.30536675,-0.38667107,-0.17666438,-0.87576824
1323442974.35358047,-0.38567761,-0.17376575,-0.87624627
1323442974.40151978,-0.38634822,-0.17435944,-0.87666285
1323442974.45355868,-0.38585714,-0.17411752,-0.87714952
1323442974.50158715,-0.38587031,-0.17629029,-0.87764668
1323442974.55353880,-0.38530594,-0.17207436,-0.87636590
1323442974.60452414,-0.38630676,-0.17497158,-0.87601626
1323442974.65371060,-0.38587940,-0.17508008,-0.87765580
1323442974.71257710,-0.38722128,-0.17421290,-0.87824774
1323442974.75324750,-0.38761061,-0.17229894,-0.87572312
1323442974.80551052,-0.38593030,-0.17560066,-0.87407130
1323442974.85257673,-0.38555199,-0.17338024,-0.87854588
1323442974.90463591,-0.38612992,-0.17481408,-0.87971926
1323442974.95352745,-0.38533941,-0.17448494,-0.87724644
1323442975.00556946,-0.38674092,-0.17423411,-0.87668538
1323442975.05359173,-0.38523129,-0.17373355,-0.87980556
1323442975.10455918,-0.38736290,-0.17372598,-0.87838703
1323442975.15365815,-0.38622624,-0.17348985,-0.87896609
1323442975.20550752,-0.38499552,-0.17399673,-0.87799889
1323442975.25363135,-0.38461325,-0.17300899,-0.88028872
1323442975.30566263,-0.38589144,-0.17544033,-0.87790990
1323442975.35759044,-0.38523149,-0.17566708,-0.88004774
1323442975.40451932,-0.38596705,-0.17518421,-0.87919575
1323442975.45353818,-0.38575915,-0.17300166,-0.87983984
1323442975.50453591,-0.38527077,-0.17604560,-0.87851131
1323442975.55251932,-0.38387123,-0.17337225,-0.88101321
1323442975.61354518,-0.38626859,-0.17275669,-0.87961364
1323442975.65252137,-0.38580051,-0.17086542,-0.87576181
1323442975.70451832,-0.38718572,-0.17431708,-0.87990886
1323442975.75497222,-0.38481826,-0.17362107,-0.87939972
1323442975.80456638,-0.38776591,-0.17516969,-0.87878281
1323442975.85350084,-0.38585600,-0.17286237,-0.88150996
1323442975.91251993,-0.38451955,-0.17300339,-0.88092351
1323442975.95252419,-0.38569513,-0.16975097,-0.87832373
1323442976.00549746,-0.38674188,-0.17563719,-0.88141084
1323442976.05665064,-0.38716200,-0.17284797,-0.88158190
1323442976.10651851,-0.38483673,-0.17410094,-0.87978125
1323442976.15361071,-0.38689351,-0.17381902,-0.88156021
1323442976.20638323,-0.38545498,-0.17311013,-0.88135815
1323442976.25358200,-0.38491932,-0.17362526,-0.87889326
1323442976.30462933,-0.38775492,-0.17565519,-0.87865078
1323442976.35250950,-0.38549110,-0.17419088,-0.88212031
1323442976.40549636,-0.38700390,-0.17454652,-0.88130510
1323442976.46562266,-0.38608402,-0.17334920,-0.88100708
1323442976.50451231,-0.38578734,-0.16925000,-0.87986821
1323442976.55266118,-0.38584134,-0.17383194,-0.88137424
1323442976.60166645,-0.38553503,-0.17493105,-0.88070959
1323442976.65351772,-0.38826540,-0.17260705,-0.88036448
1323442976.71263337,-0.38541919,-0.17492966,-0.88095921
1323442976.75352335,-0.38682997,-0.17022914,-0.87774277
1323442976.80149627,-0.38674438,-0.17698950,-0.87935352
1323442976.85264826,-0.38545600,-0.17395587,-0.88148016
1323442976.90563202,-0.38563883,-0.17457217,-0.88020593
1323442976.95251751,-0.38555539,-0.17151996,-0.88291091
1323442977.00462079,-0.38712439,-0.17490956,-0.88118112
1323442977.05353451,-0.38586053,-0.17225724,-0.88151455
1323442977.10151482,-0.38674724,-0.17394429,-0.88129526
1323442977.15260816,-0.38614681,-0.17382061,-0.88215905
1323442977.20153069,-0.38439360,-0.17336649,-0.88104194
1323442977.25353432,-0.38628379,-0.17297202,-0.88217264
1323442977.30456471,-0.38716149,-0.17683606,-0.88206530
1323442977.35355806,-0.38590392,-0.17236984,-0.88228405
1323442977.40455770,-0.38719353,-0.17453383,-0.88233948
1323442977.45254779,-0.38596910,-0.17322680,-0.88125759
1323442977.51256537,-0.38455349,-0.17507480,-0.87950271
1323442977.55356288,-0.38711455,-0.17300132,-0.87850654
1323442977.60149693,-0.38715845,-0.17429882,-0.88169932
1323442977.65254617,-0.38653508,-0.17526716,-0.88229805
1323442977.70464087,-0.38682151,-0.17359105,-0.88027799
1323442977.75350118,-0.38450706,-0.17298232,-0.88297075
1323442977.80452681,-0.38686237,-0.17600022,-0.88128692
1323442977.85351920,-0.38484991,-0.17262480,-0.88209623
1323442977.90523481,-0.38611740,-0.17479302,-0.88176650
1323442977.95357013,-0.38651600,-0.17415971,-0.88409668
1323442978.00853324,-0.38738933,-0.17538936,-0.88132024
1323442978.05368304,-0.38615036,-0.17236976,-0.88204163
1323442978.10457420,-0.38779077,-0.17535976,-0.88377428
1323442978.15351582,-0.38502729,-0.17396721,-0.88081658
1323442978.20452237,-0.38655677,-0.17504478,-0.88038105
1323442978.25306535,-0.38760829,-0.17343751,-0.88262612
1323442978.30557728,-0.38629708,-0.17555422,-0.87818736
1323442978.35263658,-0.38771302,-0.17295761,-0.88212335
1323442978.40494037,-0.38759172,-0.17368236,-0.88236749
1323442978.45350575,-0.38488275,-0.17288369,-0.88043243
1323442978.50463486,-0.38742033,-0.17589030,-0.87965459
1323442978.55352759,-0.38707304,-0.17417081,-0.88246346
1323442978.60466361,-0.38583535,-0.17337315,-0.87894547
1323442978.65257525,-0.38765678,-0.17357257,-0.88121998
1323442978.70555162,-0.38547024,-0.17276813,-0.87931365
1323442978.75352788,-0.38659814,-0.17346586,-0.88090652
1323442978.80549526,-0.38572073,-0.17615104,-0.87955922
1323442978.85266042,-0.38634160,-0.17383040,-0.88101780
1323442978.90473795,-0.38628253,-0.17384166,-0.87999058
1323442978.95356894,-0.38558662,-0.17395443,-0.88148731
1323442979.00465226,-0.38718754,-0.17407504,-0.87991071
1323442979.05352592,-0.38530701,-0.17444421,-0.88121247
1323442979.10479999,-0.38581604,-0.17398106,-0.87868410
1323442979.15365672,-0.38547349,-0.17358999,-0.88173968
1323442979.21355867,-0.38561943,-0.17421332,-0.87982345
1323442979.25350571,-0.38754815,-0.17107891,-0.87675232
1323442979.30466247,-0.38739604,-0.17688516,-0.87708640
1323442979.35354924,-0.38699085,-0.17334053,-0.88092905
1323442979.40467405,-0.38580146,-0.17591740,-0.87866944
1323442979.45256805,-0.38577762,-0.17348154,-0.88022137
1323442979.51352262,-0.38782600,-0.17600419,-0.87993205
1323442979.55533719,-0.38676012,-0.17265941,-0.87682569
1323442979.60151958,-0.38603589,-0.17555709,-0.87817293
1323442979.65263343,-0.38625109,-0.17312256,-0.87935406
1323442979.70153213,-0.38631648,-0.17591307,-0.87856978
1323442979.75351787,-0.38568825,-0.17458621,-0.87880069
1323442979.80190778,-0.38743851,-0.17711876,-0.87785494
1323442979.85755968,-0.38578886,-0.17492957,-0.88059556
1323442979.90155578,-0.38501027,-0.17399392,-0.87825572
1323442979.95264530,-0.38673568,-0.17324486,-0.87873995
1323442980.00153899,-0.38454297,-0.17522112,-0.87706935
1323442980.05353808,-0.38519335,-0.17289484,-0.87904155
1323442980.10457516,-0.38749915,-0.17493194,-0.87864184
1323442980.15351987,-0.38641599,-0.17444392,-0.88012159
1323442980.20453382,-0.38590983,-0.17495342,-0.87817031
1323442980.25352049,-0.38731954,-0.17361340,-0.87761754
1323442980.30451965,-0.38631687,-0.17460711,-0.87614745
1323442980.35256863,-0.38654464,-0.17371775,-0.88000590
1323442980.41352296,-0.38703772,-0.17565116,-0.87976319
1323442980.45252109,-0.38581428,-0.17001686,-0.87589663
1323442980.50451851,-0.38571745,-0.17532918,-0.87713319
1323442980.55351377,-0.38609380,-0.17373332,-0.87895709
1323442980.60159469,-0.38610119,-0.17373192,-0.87908548
1323442980.65351272,-0.38677451,-0.17396255,-0.87950486
1323442980.71470904,-0.38659418,-0.17469856,-0.87872171
1323442980.75653219,-0.38692436,-0.17182907,-0.87504882
1323442980.80549574,-0.38700277,-0.17638291,-0.87924409
1323442980.85353804,-0.38569281,-0.17398110,-0.87880528
1323442980.90671039,-0.38698223,-0.17421156,-0.87861860
1323442980.95355844,-0.38693351,-0.17214297,-0.87978256
1323442981.00487781,-0.38692510,-0.17494754,-0.87771428
1323442981.05349231,-0.38687092,-0.17360508,-0.87887275
1323442981.11258006,-0.38644224,-0.17361642,-0.87820917
1323442981.15316010,-0.38587999,-0.17205875,-0.87729353
1323442981.20573497,-0.38594368,-0.17605805,-0.87662846
1323442981.25679851,-0.38693190,-0.17431855,-0.88002288
1323442981.30474186,-0.38822472,-0.17578030,-0.87777978
1323442981.35353851,-0.38608178,-0.17337307,-0.87870306
1323442981.40466356,-0.38758841,-0.17650941,-0.87812352
1323442981.45754027,-0.38614729,-0.17348143,-0.87985772
1323442981.51264191,-0.38632524,-0.17545144,-0.87639785
1323442981.55272889,-0.38561583,-0.17414007,-0.87521631
1323442981.60496831,-0.38664594,-0.17565548,-0.87974161
1323442981.65346289,-0.38638836,-0.17517427,-0.87973088
1323442981.70475054,-0.38744429,-0.17564403,-0.88004160
1323442981.75350261,-0.38591734,-0.17226988,-0.88023770
1323442981.80514121,-0.38650298,-0.17604527,-0.87729925
1323442981.85361743,-0.38737038,-0.17469133,-0.87863648
1323442981.90470529,-0.38733208,-0.17515858,-0.88029486
1323442981.95352721,-0.38674542,-0.17418633,-0.88129342
1323442982.00547838,-0.38619497,-0.17470428,-0.87857175
